Location: Palomar Mountain Lodge
(33.3110°N, 116.8495°W)
Time: 13:39:29
(UTC-07:00)

COSMOS 2455 - Pass Details

Date: 12 July 2018
Orbit: 901 x 909 km, 67.1° (Epoch: 22 July)

Event Time Altitude Azimuth Distance (km) Brightness Sun altitude
Rises 21:35:34 0° 343° (NNW) 3,537 7.0 -17.5°
Reaches altitude 10° 21:38:18 10° 352° (N) 2,591 6.0 -17.9°
Maximum altitude 21:43:48 36° 58° (ENE) 1,389 3.7 -18.8°
Enters shadow 21:46:08 27° 100° (E) 1,669 3.8 -19.1°
